Time,TemperatureF,DewpointF,PressureIn,WindDirection,WindDirectionDegrees,WindSpeedMPH,WindSpeedGustMPH,Humidity,HourlyPrecipIn,Conditions,Clouds,dailyrainin,SolarRadiationWatts/m^2,SoftwareType,DateUTC
2013-06-26 00:01:00,67.6,65.8,29.93,WNW,290,1.0,2.0,94,0.00,,,0.19,0,Wunderground v.1.15,2013-06-26 04:01:00,
2013-06-26 00:02:00,67.6,65.8,29.93,WNW,292,1.0,2.0,94,0.00,,,0.19,0,Wunderground v.1.15,2013-06-26 04:02:00,
2013-06-26 00:08:00,67.6,65.8,29.93,SE,132,1.0,2.0,94,0.00,,,0.19,0,Wunderground v.1.15,2013-06-26 04:08:00,
2013-06-26 00:10:00,67.6,65.8,29.92,WNW,285,1.0,2.0,94,0.00,,,0.19,0,Wunderground v.1.15,2013-06-26 04:10:00,
2013-06-26 00:16:00,67.6,65.8,29.92,WNW,286,1.0,2.0,94,0.00,,,0.19,0,Wunderground v.1.15,2013-06-26 04:16:00,
2013-06-26 00:17:00,67.6,65.8,29.92,South,184,1.0,2.0,94,0.00,,,0.19,0,Wunderground v.1.15,2013-06-26 04:17:00,
2013-06-26 00:23:00,67.6,65.8,29.92,ENE,69,1.0,2.0,94,0.00,,,0.19,0,Wunderground v.1.15,2013-06-26 04:23:00,
2013-06-26 00:29:00,67.5,65.4,29.92,WNW,283,2.0,2.0,93,0.00,,,0.20,0,Wunderground v.1.15,2013-06-26 04:29:00,
2013-06-26 00:35:00,67.5,65.7,29.92,NW,315,1.0,3.0,94,0.00,,,0.20,0,Wunderground v.1.15,2013-06-26 04:35:00,
2013-06-26 00:40:00,67.4,65.6,29.92,ESE,123,1.0,2.0,94,0.00,,,0.20,0,Wunderground v.1.15,2013-06-26 04:40:00,
2013-06-26 00:46:00,67.4,65.3,29.92,SSE,148,1.0,4.0,93,0.00,,,0.20,0,Wunderground v.1.15,2013-06-26 04:46:00,
2013-06-26 00:52:00,67.4,65.6,29.92,NE,48,1.0,2.0,94,0.00,,,0.20,0,Wunderground v.1.15,2013-06-26 04:52:00,
2013-06-26 00:58:00,67.4,65.3,29.92,ESE,114,2.0,4.0,93,0.00,,,0.20,0,Wunderground v.1.15,2013-06-26 04:58:00,
2013-06-26 01:03:00,67.4,65.3,29.92,West,277,2.0,5.0,93,0.00,,,0.00,0,Wunderground v.1.15,2013-06-26 05:03:00,
2013-06-26 01:09:00,67.3,65.2,29.92,SW,221,1.0,5.0,93,0.00,,,0.00,0,Wunderground v.1.15,2013-06-26 05:09:00,
2013-06-26 01:15:00,67.3,65.2,29.92,SE,145,1.0,5.0,93,0.00,,,0.00,0,Wunderground v.1.15,2013-06-26 05:15:00,
2013-06-26 01:21:00,67.3,65.5,29.93,SW,229,1.0,5.0,94,0.00,,,0.00,0,Wunderground v.1.15,2013-06-26 05:21:00,
2013-06-26 01:27:00,67.2,65.4,29.93,South,178,1.0,5.0,94,0.00,,,0.00,0,Wunderground v.1.15,2013-06-26 05:27:00,
2013-06-26 01:32:00,67.3,65.5,29.93,ESE,121,2.0,5.0,94,0.00,,,0.00,0,Wunderground v.1.15,2013-06-26 05:32:00,
2013-06-26 01:38:00,67.3,65.5,29.92,West,269,2.0,5.0,94,0.00,,,0.00,0,Wunderground v.1.15,2013-06-26 05:38:00,
2013-06-26 01:44:00,67.2,65.4,29.92,West,267,1.0,5.0,94,0.00,,,0.00,0,Wunderground v.1.15,2013-06-26 05:44:00,
2013-06-26 01:49:00,67.2,65.4,29.92,SW,221,1.0,5.0,94,0.00,,,0.00,0,Wunderground v.1.15,2013-06-26 05:49:00,
2013-06-26 01:55:00,67.2,65.4,29.92,South,189,1.0,5.0,94,0.00,,,0.00,0,Wunderground v.1.15,2013-06-26 05:55:00,
2013-06-26 02:00:00,67.2,65.4,29.92,South,177,1.0,2.0,94,0.00,,,0.00,0,Wunderground v.1.15,2013-06-26 06:00:00,
2013-06-26 02:06:00,67.2,65.4,29.92,SE,136,2.0,4.0,94,0.00,,,0.00,0,Wunderground v.1.15,2013-06-26 06:06:00,
2013-06-26 02:12:00,67.2,65.4,29.92,WSW,252,2.0,2.0,94,0.00,,,0.00,0,Wunderground v.1.15,2013-06-26 06:12:00,
2013-06-26 02:18:00,67.2,65.4,29.92,NW,314,1.0,2.0,94,0.00,,,0.00,0,Wunderground v.1.15,2013-06-26 06:18:00,
2013-06-26 02:23:00,67.2,65.4,29.92,WNW,285,1.0,2.0,94,0.00,,,0.00,0,Wunderground v.1.15,2013-06-26 06:23:00,
2013-06-26 02:29:00,67.2,65.4,29.92,ENE,74,1.0,2.0,94,0.00,,,0.00,0,Wunderground v.1.15,2013-06-26 06:29:00,
2013-06-26 02:35:00,67.1,65.3,29.92,West,263,1.0,1.0,94,0.00,,,0.00,0,Wunderground v.1.15,2013-06-26 06:35:00,
2013-06-26 02:40:00,67.1,65.3,29.93,SSE,148,1.0,1.0,94,0.00,,,0.00,0,Wunderground v.1.15,2013-06-26 06:40:00,
2013-06-26 02:41:00,67.1,65.3,29.93,SSE,148,1.0,1.0,94,0.00,,,0.00,0,Wunderground v.1.15,2013-06-26 06:41:00,
2013-06-26 02:46:00,67.1,65.3,29.93,SE,139,1.0,3.0,94,0.00,,,0.00,0,Wunderground v.1.15,2013-06-26 06:46:00,
2013-06-26 02:52:00,67.1,65.3,29.93,SE,124,1.0,3.0,94,0.00,,,0.00,0,Wunderground v.1.15,2013-06-26 06:52:00,
2013-06-26 02:57:00,67.0,65.2,29.92,SE,140,2.0,3.0,94,0.00,,,0.00,0,Wunderground v.1.15,2013-06-26 06:57:00,
2013-06-26 03:03:00,66.9,65.1,29.92,ESE,123,3.0,5.0,94,0.00,,,0.00,0,Wunderground v.1.15,2013-06-26 07:03:00,
2013-06-26 03:09:00,67.0,65.2,29.92,SE,138,3.0,5.0,94,0.00,,,0.00,0,Wunderground v.1.15,2013-06-26 07:09:00,
2013-06-26 03:14:00,66.8,65.0,29.92,SE,126,3.0,4.0,94,0.00,,,0.00,0,Wunderground v.1.15,2013-06-26 07:14:00,
2013-06-26 03:20:00,66.9,65.1,29.92,ESE,113,2.0,2.0,94,0.00,,,0.00,0,Wunderground v.1.15,2013-06-26 07:20:00,
2013-06-26 03:26:00,66.9,65.1,29.92,SW,231,1.0,4.0,94,0.00,,,0.00,0,Wunderground v.1.15,2013-06-26 07:26:00,
2013-06-26 03:31:00,66.9,65.1,29.92,West,275,1.0,4.0,94,0.00,,,0.00,0,Wunderground v.1.15,2013-06-26 07:31:00,
2013-06-26 03:37:00,66.8,65.0,29.91,WNW,296,1.0,4.0,94,0.00,,,0.00,0,Wunderground v.1.15,2013-06-26 07:37:00,
2013-06-26 03:42:00,66.7,64.9,29.91,WSW,244,1.0,4.0,94,0.00,,,0.00,0,Wunderground v.1.15,2013-06-26 07:42:00,
2013-06-26 03:48:00,66.7,64.9,29.91,WNW,296,0.0,4.0,94,0.00,,,0.00,0,Wunderground v.1.15,2013-06-26 07:48:00,
2013-06-26 03:54:00,66.7,64.9,29.91,West,280,0.0,4.0,94,0.00,,,0.00,0,Wunderground v.1.15,2013-06-26 07:54:00,
2013-06-26 03:59:00,66.7,64.9,29.91,West,280,0.0,4.0,94,0.00,,,0.00,0,Wunderground v.1.15,2013-06-26 07:59:00,
2013-06-26 04:05:00,66.6,64.8,29.91,West,280,1.0,1.0,94,0.00,,,0.00,0,Wunderground v.1.15,2013-06-26 08:05:00,
2013-06-26 04:10:00,66.5,64.7,29.91,West,265,0.0,1.0,94,0.00,,,0.00,0,Wunderground v.1.15,2013-06-26 08:10:00,
2013-06-26 04:16:00,66.5,64.7,29.91,SW,218,0.0,1.0,94,0.00,,,0.00,0,Wunderground v.1.15,2013-06-26 08:16:00,
2013-06-26 04:22:00,66.5,64.7,29.91,West,274,1.0,1.0,94,0.00,,,0.00,0,Wunderground v.1.15,2013-06-26 08:22:00,
2013-06-26 04:28:00,66.5,64.7,29.91,WNW,298,1.0,2.0,94,0.00,,,0.00,0,Wunderground v.1.15,2013-06-26 08:28:00,
2013-06-26 04:33:00,66.5,64.7,29.91,WNW,297,1.0,2.0,94,0.00,,,0.00,0,Wunderground v.1.15,2013-06-26 08:33:00,
2013-06-26 04:39:00,66.5,64.7,29.91,WNW,284,1.0,2.0,94,0.00,,,0.00,0,Wunderground v.1.15,2013-06-26 08:39:00,
2013-06-26 04:45:00,66.4,64.9,29.91,West,279,1.0,2.0,95,0.00,,,0.00,0,Wunderground v.1.15,2013-06-26 08:45:00,
2013-06-26 04:50:00,66.4,64.9,29.91,West,279,1.0,1.0,95,0.00,,,0.00,0,Wunderground v.1.15,2013-06-26 08:50:00,
2013-06-26 04:56:00,66.3,64.8,29.91,SSW,207,0.0,1.0,95,0.00,,,0.00,0,Wunderground v.1.15,2013-06-26 08:56:00,
2013-06-26 05:02:00,66.4,64.6,29.91,SE,142,1.0,3.0,94,0.00,,,0.00,0,Wunderground v.1.15,2013-06-26 09:02:00,
2013-06-26 05:08:00,66.4,64.6,29.91,SE,142,1.0,3.0,94,0.00,,,0.00,0,Wunderground v.1.15,2013-06-26 09:08:00,
2013-06-26 05:15:00,66.5,64.7,29.91,WSW,241,1.0,4.0,94,0.00,,,0.00,0,Wunderground v.1.15,2013-06-26 09:15:00,
2013-06-26 05:20:00,66.5,64.4,29.91,West,276,1.0,1.0,93,0.00,,,0.00,0,Wunderground v.1.15,2013-06-26 09:20:00,
2013-06-26 05:25:00,66.4,64.3,29.91,SSE,155,1.0,3.0,93,0.00,,,0.00,0,Wunderground v.1.15,2013-06-26 09:25:00,
2013-06-26 05:31:00,66.3,64.5,29.92,SE,139,1.0,3.0,94,0.00,,,0.00,0,Wunderground v.1.15,2013-06-26 09:31:00,
2013-06-26 05:37:00,66.3,64.5,29.92,SE,136,2.0,3.0,94,0.00,,,0.00,0,Wunderground v.1.15,2013-06-26 09:37:00,
2013-06-26 05:42:00,66.4,64.6,29.92,SE,140,1.0,3.0,94,0.00,,,0.00,11,Wunderground v.1.15,2013-06-26 09:42:00,
2013-06-26 05:48:00,66.4,64.6,29.92,WNW,296,1.0,3.0,94,0.00,,,0.00,16,Wunderground v.1.15,2013-06-26 09:48:00,
2013-06-26 05:54:00,66.4,64.6,29.91,WNW,296,1.0,3.0,94,0.00,,,0.00,19,Wunderground v.1.15,2013-06-26 09:54:00,
2013-06-26 06:00:00,66.4,64.6,29.91,South,173,0.0,3.0,94,0.00,,,0.00,21,Wunderground v.1.15,2013-06-26 10:00:00,
2013-06-26 06:05:00,66.4,64.3,29.91,SE,141,1.0,3.0,93,0.00,,,0.00,23,Wunderground v.1.15,2013-06-26 10:05:00,
2013-06-26 06:11:00,66.4,64.3,29.92,SSW,196,1.0,3.0,93,0.00,,,0.00,28,Wunderground v.1.15,2013-06-26 10:11:00,
2013-06-26 06:16:00,66.4,64.6,29.92,SW,218,0.0,3.0,94,0.00,,,0.00,35,Wunderground v.1.15,2013-06-26 10:16:00,
2013-06-26 06:22:00,66.5,64.7,29.92,West,263,0.0,3.0,94,0.00,,,0.00,32,Wunderground v.1.15,2013-06-26 10:22:00,
2013-06-26 06:28:00,66.5,64.7,29.92,West,263,0.0,3.0,94,0.00,,,0.00,28,Wunderground v.1.15,2013-06-26 10:28:00,
2013-06-26 06:34:00,66.5,64.7,29.92,WSW,253,1.0,3.0,94,0.00,,,0.00,26,Wunderground v.1.15,2013-06-26 10:34:00,
2013-06-26 06:39:00,66.6,64.5,29.92,WNW,282,1.0,3.0,93,0.00,,,0.00,25,Wunderground v.1.15,2013-06-26 10:39:00,
2013-06-26 06:45:00,66.6,64.8,29.92,SSW,207,0.0,3.0,94,0.00,,,0.00,35,Wunderground v.1.15,2013-06-26 10:45:00,
2013-06-26 06:51:00,66.7,64.9,29.91,SSW,208,0.0,3.0,94,0.00,,,0.00,42,Wunderground v.1.15,2013-06-26 10:51:00,
2013-06-26 06:57:00,66.8,64.7,29.91,SSE,149,0.0,3.0,93,0.00,,,0.00,44,Wunderground v.1.15,2013-06-26 10:57:00,
2013-06-26 07:03:00,66.8,64.7,29.91,SSE,155,1.0,2.0,93,0.00,,,0.00,42,Wunderground v.1.15,2013-06-26 11:03:00,
2013-06-26 07:09:00,66.9,64.8,29.92,SSW,200,1.0,2.0,93,0.00,,,0.00,60,Wunderground v.1.15,2013-06-26 11:09:00,
2013-06-26 07:15:00,67.1,65.0,29.92,ESE,121,1.0,2.0,93,0.00,,,0.00,69,Wunderground v.1.15,2013-06-26 11:15:00,
2013-06-26 07:21:00,67.3,64.9,29.91,West,269,2.0,2.0,92,0.00,,,0.00,54,Wunderground v.1.15,2013-06-26 11:21:00,
2013-06-26 07:27:00,67.5,65.1,29.91,SW,223,1.0,2.0,92,0.00,,,0.00,53,Wunderground v.1.15,2013-06-26 11:27:00,
2013-06-26 07:33:00,67.7,65.3,29.91,West,276,1.0,2.0,92,0.00,,,0.00,60,Wunderground v.1.15,2013-06-26 11:33:00,
2013-06-26 07:38:00,67.8,65.4,29.91,NW,321,1.0,2.0,92,0.00,,,0.00,113,Wunderground v.1.15,2013-06-26 11:38:00,
2013-06-26 07:44:00,68.2,65.5,29.92,WNW,284,1.0,2.0,91,0.00,,,0.00,160,Wunderground v.1.15,2013-06-26 11:44:00,
2013-06-26 07:50:00,68.7,66.0,29.92,SW,223,1.0,3.0,91,0.00,,,0.00,162,Wunderground v.1.15,2013-06-26 11:50:00,
2013-06-26 07:56:00,69.1,66.0,29.92,WNW,296,2.0,3.0,90,0.00,,,0.00,153,Wunderground v.1.15,2013-06-26 11:56:00,
2013-06-26 08:01:00,69.1,65.7,29.92,SSE,152,1.0,4.0,89,0.00,,,0.00,148,Wunderground v.1.15,2013-06-26 12:01:00,
2013-06-26 08:07:00,69.2,65.8,29.92,WSW,242,1.0,4.0,89,0.00,,,0.00,151,Wunderground v.1.15,2013-06-26 12:07:00,
2013-06-26 08:13:00,69.4,66.3,29.92,WNW,290,1.0,1.0,90,0.00,,,0.00,239,Wunderground v.1.15,2013-06-26 12:13:00,
2013-06-26 08:18:00,69.7,66.3,29.92,West,269,1.0,3.0,89,0.00,,,0.00,134,Wunderground v.1.15,2013-06-26 12:18:00,
2013-06-26 08:23:00,69.6,65.9,29.92,SE,141,2.0,4.0,88,0.00,,,0.00,111,Wunderground v.1.15,2013-06-26 12:23:00,
2013-06-26 08:29:00,69.6,66.2,29.92,SE,131,3.0,6.0,89,0.00,,,0.00,480,Wunderground v.1.15,2013-06-26 12:29:00,
2013-06-26 08:34:00,70.1,66.7,29.92,East,98,3.0,3.0,89,0.00,,,0.00,497,Wunderground v.1.15,2013-06-26 12:34:00,
2013-06-26 08:40:00,70.5,66.8,29.92,West,264,2.0,2.0,88,0.00,,,0.00,485,Wunderground v.1.15,2013-06-26 12:40:00,
2013-06-26 08:46:00,71.3,67.2,29.92,SW,231,2.0,4.0,87,0.00,,,0.00,554,Wunderground v.1.15,2013-06-26 12:46:00,
2013-06-26 08:52:00,71.6,66.5,29.92,ESE,110,2.0,5.0,84,0.00,,,0.00,246,Wunderground v.1.15,2013-06-26 12:52:00,
2013-06-26 08:57:00,71.8,67.0,29.92,NNW,331,3.0,5.0,85,0.00,,,0.00,236,Wunderground v.1.15,2013-06-26 12:57:00,
2013-06-26 09:02:00,72.1,66.6,29.91,SE,124,2.0,2.0,83,0.00,,,0.00,269,Wunderground v.1.15,2013-06-26 13:02:00,
2013-06-26 09:08:00,72.7,67.6,29.91,ENE,69,2.0,2.0,84,0.00,,,0.00,527,Wunderground v.1.15,2013-06-26 13:08:00,
2013-06-26 09:13:00,73.2,67.4,29.90,SE,132,2.0,4.0,82,0.00,,,0.00,501,Wunderground v.1.15,2013-06-26 13:13:00,
2013-06-26 09:19:00,73.5,67.3,29.90,NW,314,2.0,4.0,81,0.00,,,0.00,594,Wunderground v.1.15,2013-06-26 13:19:00,
2013-06-26 09:24:00,73.9,67.0,29.90,SE,124,2.0,4.0,79,0.00,,,0.00,555,Wunderground v.1.15,2013-06-26 13:24:00,
2013-06-26 09:30:00,74.1,66.8,29.90,SE,124,2.0,6.0,78,0.00,,,0.00,322,Wunderground v.1.15,2013-06-26 13:30:00,
2013-06-26 09:36:00,73.9,66.6,29.90,SE,135,3.0,6.0,78,0.00,,,0.00,243,Wunderground v.1.15,2013-06-26 13:36:00,
2013-06-26 09:42:00,73.8,66.5,29.89,ESE,120,3.0,3.0,78,0.00,,,0.00,278,Wunderground v.1.15,2013-06-26 13:42:00,
2013-06-26 09:49:00,74.0,66.7,29.89,WNW,285,1.0,3.0,78,0.00,,,0.00,244,Wunderground v.1.15,2013-06-26 13:49:00,
2013-06-26 09:54:00,74.2,66.9,29.89,SE,128,1.0,5.0,78,0.00,,,0.00,148,Wunderground v.1.15,2013-06-26 13:54:00,
2013-06-26 10:00:00,74.1,66.8,29.89,ESE,116,1.0,4.0,78,0.00,,,0.00,141,Wunderground v.1.15,2013-06-26 14:00:00,
2013-06-26 10:06:00,74.0,67.1,29.90,SE,140,1.0,4.0,79,0.00,,,0.00,139,Wunderground v.1.15,2013-06-26 14:06:00,
2013-06-26 10:12:00,73.8,66.9,29.90,ESE,111,2.0,4.0,79,0.00,,,0.00,116,Wunderground v.1.15,2013-06-26 14:12:00,
2013-06-26 10:19:00,73.5,66.6,29.90,SE,142,2.0,5.0,79,0.00,,,0.00,111,Wunderground v.1.15,2013-06-26 14:19:00,
2013-06-26 10:24:00,73.4,66.5,29.90,SE,138,3.0,6.0,79,0.00,,,0.00,107,Wunderground v.1.15,2013-06-26 14:24:00,
2013-06-26 10:29:00,73.3,66.8,29.90,NW,311,3.0,6.0,80,0.00,,,0.00,121,Wunderground v.1.15,2013-06-26 14:29:00,
2013-06-26 10:34:00,73.3,66.4,29.90,SE,145,2.0,4.0,79,0.00,,,0.00,114,Wunderground v.1.15,2013-06-26 14:34:00,
2013-06-26 10:39:00,73.3,67.1,29.91,West,277,1.0,4.0,81,0.00,,,0.00,104,Wunderground v.1.15,2013-06-26 14:39:00,
2013-06-26 10:45:00,73.3,67.1,29.91,West,279,1.0,4.0,81,0.00,,,0.00,113,Wunderground v.1.15,2013-06-26 14:45:00,
2013-06-26 10:50:00,73.3,67.1,29.91,WNW,284,2.0,2.0,81,0.00,,,0.00,141,Wunderground v.1.15,2013-06-26 14:50:00,
2013-06-26 10:56:00,73.3,67.5,29.91,WNW,298,1.0,4.0,82,0.00,,,0.00,165,Wunderground v.1.15,2013-06-26 14:56:00,
2013-06-26 11:02:00,73.3,67.8,29.91,NNW,341,1.0,4.0,83,0.00,,,0.00,195,Wunderground v.1.15,2013-06-26 15:02:00,
2013-06-26 11:08:00,73.3,67.8,29.91,NW,309,1.0,4.0,83,0.00,,,0.00,209,Wunderground v.1.15,2013-06-26 15:08:00,
2013-06-26 11:13:00,73.3,68.2,29.92,WNW,284,1.0,3.0,84,0.00,,,0.00,202,Wunderground v.1.15,2013-06-26 15:13:00,
2013-06-26 11:19:00,73.4,67.6,29.92,WNW,290,1.0,3.0,82,0.00,,,0.00,206,Wunderground v.1.15,2013-06-26 15:19:00,
2013-06-26 11:25:00,73.6,67.4,29.92,WNW,283,1.0,3.0,81,0.00,,,0.00,294,Wunderground v.1.15,2013-06-26 15:25:00,
2013-06-26 11:30:00,73.8,68.0,29.92,West,275,1.0,3.0,82,0.00,,,0.00,343,Wunderground v.1.15,2013-06-26 15:30:00,
2013-06-26 11:36:00,74.0,67.8,29.92,South,189,2.0,4.0,81,0.00,,,0.00,318,Wunderground v.1.15,2013-06-26 15:36:00,
2013-06-26 11:41:00,74.0,67.4,29.92,SSW,194,2.0,3.0,80,0.00,,,0.00,269,Wunderground v.1.15,2013-06-26 15:41:00,
2013-06-26 11:47:00,74.0,67.1,29.93,WNW,298,2.0,3.0,79,0.00,,,0.00,239,Wunderground v.1.15,2013-06-26 15:47:00,
2013-06-26 11:52:00,74.0,67.1,29.93,SSE,158,2.0,5.0,79,0.00,,,0.00,281,Wunderground v.1.15,2013-06-26 15:52:00,
2013-06-26 11:57:00,73.8,66.9,29.93,SE,138,3.0,10.0,79,0.00,,,0.00,315,Wunderground v.1.15,2013-06-26 15:57:00,
2013-06-26 12:03:00,73.8,66.9,29.93,SE,138,5.0,10.0,79,0.00,,,0.00,318,Wunderground v.1.15,2013-06-26 16:03:00,
2013-06-26 12:08:00,73.9,67.0,29.93,SE,137,5.0,10.0,79,0.00,,,0.00,357,Wunderground v.1.15,2013-06-26 16:08:00,
2013-06-26 12:14:00,74.0,66.7,29.93,SE,146,4.0,10.0,78,0.00,,,0.00,348,Wunderground v.1.15,2013-06-26 16:14:00,
2013-06-26 12:20:00,74.3,66.6,29.93,ESE,123,3.0,3.0,77,0.00,,,0.00,330,Wunderground v.1.15,2013-06-26 16:20:00,
2013-06-26 12:25:00,74.6,67.3,29.93,WSW,241,3.0,10.0,78,0.00,,,0.00,367,Wunderground v.1.15,2013-06-26 16:25:00,
2013-06-26 12:31:00,75.0,66.5,29.93,ESE,121,3.0,10.0,75,0.00,,,0.00,415,Wunderground v.1.15,2013-06-26 16:31:00,
2013-06-26 12:37:00,75.2,66.7,29.93,SE,145,3.0,10.0,75,0.00,,,0.00,441,Wunderground v.1.15,2013-06-26 16:37:00,
2013-06-26 12:43:00,75.2,66.3,29.92,ESE,109,3.0,10.0,74,0.00,,,0.00,418,Wunderground v.1.15,2013-06-26 16:43:00,
2013-06-26 12:49:00,75.2,66.3,29.92,West,270,4.0,10.0,74,0.00,,,0.00,418,Wunderground v.1.15,2013-06-26 16:49:00,
2013-06-26 12:55:00,75.2,66.3,29.92,SE,124,4.0,10.0,74,0.00,,,0.00,434,Wunderground v.1.15,2013-06-26 16:55:00,
2013-06-26 13:00:00,75.6,66.3,29.92,SE,141,4.0,7.0,73,0.00,,,0.00,596,Wunderground v.1.15,2013-06-26 17:00:00,
2013-06-26 13:06:00,76.4,68.3,29.92,WNW,300,3.0,7.0,76,0.00,,,0.00,1002,Wunderground v.1.15,2013-06-26 17:06:00,
2013-06-26 13:12:00,76.9,66.8,29.92,East,101,3.0,7.0,71,0.00,,,0.00,459,Wunderground v.1.15,2013-06-26 17:12:00,
2013-06-26 13:17:00,77.1,67.0,29.92,WNW,284,2.0,7.0,71,0.00,,,0.00,455,Wunderground v.1.15,2013-06-26 17:17:00,
2013-06-26 13:22:00,77.5,68.2,29.92,WNW,288,2.0,7.0,73,0.00,,,0.00,902,Wunderground v.1.15,2013-06-26 17:22:00,
2013-06-26 13:28:00,77.5,67.4,29.93,SE,131,3.0,7.0,71,0.00,,,0.00,533,Wunderground v.1.15,2013-06-26 17:28:00,
2013-06-26 13:34:00,77.8,66.4,29.92,ESE,119,3.0,7.0,68,0.00,,,0.00,383,Wunderground v.1.15,2013-06-26 17:34:00,
2013-06-26 13:40:00,77.0,66.9,29.92,NE,47,4.0,4.0,71,0.00,,,0.00,441,Wunderground v.1.15,2013-06-26 17:40:00,
2013-06-26 13:46:00,77.5,66.9,29.92,WNW,292,3.0,7.0,70,0.00,,,0.00,336,Wunderground v.1.15,2013-06-26 17:46:00,
2013-06-26 13:52:00,77.6,67.0,29.92,NNW,338,2.0,7.0,70,0.00,,,0.00,178,Wunderground v.1.15,2013-06-26 17:52:00,
2013-06-26 13:58:00,77.5,66.5,29.92,SE,146,3.0,8.0,69,0.00,,,0.00,151,Wunderground v.1.15,2013-06-26 17:58:00,
2013-06-26 14:04:00,77.4,66.4,29.92,WNW,296,3.0,5.0,69,0.00,,,0.00,218,Wunderground v.1.15,2013-06-26 18:04:00,
2013-06-26 14:10:00,77.3,67.2,29.92,NW,304,2.0,2.0,71,0.00,,,0.00,248,Wunderground v.1.15,2013-06-26 18:10:00,
2013-06-26 14:15:00,77.5,67.8,29.92,WNW,290,2.0,5.0,72,0.00,,,0.00,181,Wunderground v.1.15,2013-06-26 18:15:00,
2013-06-26 14:21:00,77.3,67.6,29.92,NW,309,2.0,4.0,72,0.00,,,0.00,209,Wunderground v.1.15,2013-06-26 18:21:00,
2013-06-26 14:27:00,77.1,67.4,29.92,NW,325,2.0,5.0,72,0.00,,,0.00,197,Wunderground v.1.15,2013-06-26 18:27:00,
2013-06-26 14:32:00,77.2,67.5,29.92,NW,304,2.0,5.0,72,0.00,,,0.00,294,Wunderground v.1.15,2013-06-26 18:32:00,
2013-06-26 14:38:00,77.3,67.6,29.92,WNW,296,2.0,6.0,72,0.00,,,0.00,346,Wunderground v.1.15,2013-06-26 18:38:00,
2013-06-26 14:44:00,77.6,67.4,29.92,WNW,286,2.0,5.0,71,0.00,,,0.00,269,Wunderground v.1.15,2013-06-26 18:44:00,
2013-06-26 14:50:00,77.5,68.2,29.92,WNW,302,2.0,2.0,73,0.00,,,0.00,179,Wunderground v.1.15,2013-06-26 18:50:00,
2013-06-26 14:55:00,77.5,68.6,29.91,SW,216,1.0,5.0,74,0.00,,,0.00,186,Wunderground v.1.15,2013-06-26 18:55:00,
2013-06-26 15:00:00,77.6,67.4,29.91,ESE,118,1.0,4.0,71,0.00,,,0.00,230,Wunderground v.1.15,2013-06-26 19:00:00,
2013-06-26 15:06:00,77.6,67.4,29.91,ESE,112,2.0,5.0,71,0.00,,,0.00,327,Wunderground v.1.15,2013-06-26 19:06:00,
2013-06-26 15:11:00,77.9,68.1,29.91,West,261,1.0,4.0,72,0.00,,,0.00,388,Wunderground v.1.15,2013-06-26 19:11:00,
2013-06-26 15:17:00,78.0,68.2,29.90,WNW,296,1.0,5.0,72,0.00,,,0.00,193,Wunderground v.1.15,2013-06-26 19:17:00,
2013-06-26 15:22:00,77.8,68.4,29.91,NW,315,2.0,4.0,73,0.00,,,0.00,134,Wunderground v.1.15,2013-06-26 19:22:00,
2013-06-26 15:28:00,77.7,68.0,29.90,WNW,300,2.0,4.0,72,0.00,,,0.00,160,Wunderground v.1.15,2013-06-26 19:28:00,
2013-06-26 15:34:00,77.5,67.4,29.90,NW,308,3.0,4.0,71,0.00,,,0.00,120,Wunderground v.1.15,2013-06-26 19:34:00,
2013-06-26 15:40:00,77.4,67.7,29.90,ESE,111,3.0,3.0,72,0.00,,,0.00,250,Wunderground v.1.15,2013-06-26 19:40:00,
2013-06-26 15:45:00,77.8,68.4,29.89,NNW,327,2.0,4.0,73,0.00,,,0.00,531,Wunderground v.1.15,2013-06-26 19:45:00,
2013-06-26 15:50:00,78.6,68.4,29.89,NW,304,2.0,2.0,71,0.00,,,0.00,687,Wunderground v.1.15,2013-06-26 19:50:00,
2013-06-26 15:56:00,79.6,68.5,29.89,NW,311,2.0,5.0,69,0.00,,,0.00,487,Wunderground v.1.15,2013-06-26 19:56:00,
2013-06-26 16:02:00,79.6,68.1,29.89,NNW,334,3.0,4.0,68,0.00,,,0.00,555,Wunderground v.1.15,2013-06-26 20:02:00,
2013-06-26 16:07:00,79.7,69.0,29.89,WNW,290,2.0,4.0,70,0.00,,,0.00,517,Wunderground v.1.15,2013-06-26 20:07:00,
2013-06-26 16:13:00,79.8,68.3,29.88,WNW,300,3.0,4.0,68,0.00,,,0.00,387,Wunderground v.1.15,2013-06-26 20:13:00,
2013-06-26 16:18:00,79.7,67.8,29.89,East,80,2.0,5.0,67,0.00,,,0.00,338,Wunderground v.1.15,2013-06-26 20:18:00,
2013-06-26 16:24:00,79.8,67.4,29.89,ESE,114,2.0,4.0,66,0.00,,,0.00,334,Wunderground v.1.15,2013-06-26 20:24:00,
2013-06-26 16:30:00,79.6,66.8,29.88,ESE,122,2.0,6.0,65,0.00,,,0.00,269,Wunderground v.1.15,2013-06-26 20:30:00,
2013-06-26 16:35:00,79.4,67.5,29.88,WNW,290,2.0,6.0,67,0.00,,,0.00,265,Wunderground v.1.15,2013-06-26 20:35:00,
2013-06-26 16:40:00,79.3,67.0,29.88,WNW,288,2.0,4.0,66,0.00,,,0.00,227,Wunderground v.1.15,2013-06-26 20:40:00,
2013-06-26 16:46:00,79.0,67.1,29.88,NW,321,2.0,4.0,67,0.00,,,0.00,264,Wunderground v.1.15,2013-06-26 20:46:00,
2013-06-26 16:52:00,79.0,67.1,29.88,NW,313,2.0,4.0,67,0.00,,,0.00,295,Wunderground v.1.15,2013-06-26 20:52:00,
2013-06-26 16:57:00,79.2,67.7,29.88,NW,315,1.0,4.0,68,0.00,,,0.00,360,Wunderground v.1.15,2013-06-26 20:57:00,
2013-06-26 17:03:00,79.5,68.0,29.87,NW,317,1.0,2.0,68,0.00,,,0.00,394,Wunderground v.1.15,2013-06-26 21:03:00,
2013-06-26 17:09:00,79.8,67.9,29.87,WNW,295,2.0,4.0,67,0.00,,,0.00,366,Wunderground v.1.15,2013-06-26 21:09:00,
2013-06-26 17:15:00,79.8,67.4,29.86,SE,126,2.0,4.0,66,0.00,,,0.00,401,Wunderground v.1.15,2013-06-26 21:15:00,
2013-06-26 17:21:00,79.4,67.9,29.87,East,96,3.0,3.0,68,0.00,,,0.00,439,Wunderground v.1.15,2013-06-26 21:21:00,
2013-06-26 17:27:00,79.3,68.7,29.87,NNW,338,2.0,5.0,70,0.00,,,0.00,285,Wunderground v.1.15,2013-06-26 21:27:00,
2013-06-26 17:33:00,79.6,67.7,29.87,NW,306,2.0,2.0,67,0.00,,,0.00,345,Wunderground v.1.15,2013-06-26 21:33:00,
2013-06-26 17:38:00,80.0,68.1,29.87,West,262,2.0,2.0,67,0.00,,,0.00,366,Wunderground v.1.15,2013-06-26 21:38:00,
2013-06-26 17:44:00,80.4,68.0,29.87,WNW,290,2.0,5.0,66,0.00,,,0.00,334,Wunderground v.1.15,2013-06-26 21:44:00,
2013-06-26 17:49:00,80.4,67.6,29.87,ESE,111,2.0,6.0,65,0.00,,,0.00,385,Wunderground v.1.15,2013-06-26 21:49:00,
2013-06-26 17:55:00,79.7,67.3,29.87,SE,143,3.0,5.0,66,0.00,,,0.00,313,Wunderground v.1.15,2013-06-26 21:55:00,
2013-06-26 18:00:00,79.8,67.9,29.87,WNW,291,3.0,4.0,67,0.00,,,0.00,148,Wunderground v.1.15,2013-06-26 22:00:00,
2013-06-26 18:06:00,79.9,68.4,29.87,NW,319,2.0,4.0,68,0.00,,,0.00,376,Wunderground v.1.15,2013-06-26 22:06:00,
2013-06-26 18:12:00,80.5,67.6,29.87,NW,304,2.0,4.0,65,0.00,,,0.00,345,Wunderground v.1.15,2013-06-26 22:12:00,
2013-06-26 18:18:00,80.8,67.9,29.87,North,350,2.0,4.0,65,0.00,,,0.00,330,Wunderground v.1.15,2013-06-26 22:18:00,
2013-06-26 18:24:00,80.8,67.5,29.87,WNW,297,3.0,5.0,64,0.00,,,0.00,320,Wunderground v.1.15,2013-06-26 22:24:00,
2013-06-26 18:30:00,80.8,67.5,29.87,NNW,345,2.0,2.0,64,0.00,,,0.00,278,Wunderground v.1.15,2013-06-26 22:30:00,
2013-06-26 18:36:00,80.9,67.6,29.86,North,351,2.0,4.0,64,0.00,,,0.00,255,Wunderground v.1.15,2013-06-26 22:36:00,
2013-06-26 18:42:00,80.8,67.0,29.86,WNW,290,2.0,4.0,63,0.00,,,0.00,255,Wunderground v.1.15,2013-06-26 22:42:00,
2013-06-26 18:48:00,80.8,67.0,29.86,WNW,288,2.0,4.0,63,0.00,,,0.00,234,Wunderground v.1.15,2013-06-26 22:48:00,
2013-06-26 18:54:00,80.9,67.1,29.86,WNW,301,2.0,4.0,63,0.00,,,0.00,214,Wunderground v.1.15,2013-06-26 22:54:00,
2013-06-26 18:59:00,80.8,67.0,29.86,NW,313,2.0,5.0,63,0.00,,,0.00,199,Wunderground v.1.15,2013-06-26 22:59:00,
2013-06-26 19:05:00,80.7,67.8,29.86,NW,304,2.0,4.0,65,0.00,,,0.00,171,Wunderground v.1.15,2013-06-26 23:05:00,
2013-06-26 19:11:00,80.7,67.4,29.86,NW,305,2.0,4.0,64,0.00,,,0.00,155,Wunderground v.1.15,2013-06-26 23:11:00,
2013-06-26 19:17:00,80.4,67.1,29.86,WNW,298,2.0,4.0,64,0.00,,,0.00,139,Wunderground v.1.15,2013-06-26 23:17:00,
2013-06-26 19:22:00,80.3,67.5,29.86,NW,323,2.0,4.0,65,0.00,,,0.00,125,Wunderground v.1.15,2013-06-26 23:22:00,
2013-06-26 19:28:00,80.4,67.6,29.86,WNW,296,1.0,4.0,65,0.00,,,0.00,107,Wunderground v.1.15,2013-06-26 23:28:00,
2013-06-26 19:34:00,80.3,67.9,29.86,WNW,301,1.0,4.0,66,0.00,,,0.00,91,Wunderground v.1.15,2013-06-26 23:34:00,
2013-06-26 19:41:00,79.8,67.0,29.86,NNW,345,1.0,4.0,65,0.00,,,0.00,40,Wunderground v.1.15,2013-06-26 23:41:00,
2013-06-26 19:46:00,79.6,67.2,29.86,NNW,329,1.0,4.0,66,0.00,,,0.00,35,Wunderground v.1.15,2013-06-26 23:46:00,
2013-06-26 19:51:00,79.2,67.3,29.86,WNW,294,1.0,1.0,67,0.00,,,0.00,32,Wunderground v.1.15,2013-06-26 23:51:00,
2013-06-26 19:57:00,78.9,67.4,29.86,NW,319,1.0,4.0,68,0.00,,,0.00,28,Wunderground v.1.15,2013-06-26 23:57:00,
2013-06-26 20:03:00,78.5,67.5,29.86,NW,324,1.0,1.0,69,0.00,,,0.00,25,Wunderground v.1.15,2013-06-27 00:03:00,
2013-06-26 20:09:00,78.2,67.6,29.86,NW,324,1.0,1.0,70,0.00,,,0.00,21,Wunderground v.1.15,2013-06-27 00:09:00,
2013-06-26 20:15:00,77.9,67.7,29.86,NW,324,1.0,1.0,71,0.00,,,0.00,18,Wunderground v.1.15,2013-06-27 00:15:00,
2013-06-26 20:21:00,77.6,67.9,29.86,NW,324,1.0,1.0,72,0.00,,,0.00,14,Wunderground v.1.15,2013-06-27 00:21:00,
2013-06-26 20:27:00,77.4,67.7,29.86,NW,324,1.0,1.0,72,0.00,,,0.00,11,Wunderground v.1.15,2013-06-27 00:27:00,
2013-06-26 20:33:00,77.2,67.5,29.86,NW,324,0.0,1.0,72,0.00,,,0.00,7,Wunderground v.1.15,2013-06-27 00:33:00,
2013-06-26 20:38:00,76.9,67.6,29.86,NW,324,0.0,1.0,73,0.00,,,0.00,5,Wunderground v.1.15,2013-06-27 00:38:00,
2013-06-26 20:44:00,76.5,67.6,29.86,NW,324,0.0,1.0,74,0.00,,,0.00,0,Wunderground v.1.15,2013-06-27 00:44:00,
2013-06-26 20:49:00,76.3,67.8,29.86,NW,324,0.0,1.0,75,0.00,,,0.00,0,Wunderground v.1.15,2013-06-27 00:49:00,
2013-06-26 20:55:00,76.1,68.0,29.86,NW,324,0.0,1.0,76,0.00,,,0.00,0,Wunderground v.1.15,2013-06-27 00:55:00,
2013-06-26 21:00:00,75.7,67.6,29.86,NW,324,0.0,1.0,76,0.00,,,0.00,0,Wunderground v.1.15,2013-06-27 01:00:00,
2013-06-26 21:06:00,75.4,67.7,29.86,NW,324,0.0,1.0,77,0.00,,,0.00,0,Wunderground v.1.15,2013-06-27 01:06:00,
2013-06-26 21:12:00,75.1,67.8,29.86,NW,324,0.0,1.0,78,0.00,,,0.00,0,Wunderground v.1.15,2013-06-27 01:12:00,
2013-06-26 21:18:00,74.8,67.5,29.86,NW,324,0.0,1.0,78,0.00,,,0.00,0,Wunderground v.1.15,2013-06-27 01:18:00,
2013-06-26 21:24:00,74.7,67.8,29.87,NW,324,0.0,1.0,79,0.00,,,0.00,0,Wunderground v.1.15,2013-06-27 01:24:00,
2013-06-26 21:29:00,74.6,68.0,29.87,NW,324,0.0,1.0,80,0.00,,,0.00,0,Wunderground v.1.15,2013-06-27 01:29:00,
2013-06-26 21:35:00,74.5,67.9,29.88,NW,324,0.0,1.0,80,0.00,,,0.00,0,Wunderground v.1.15,2013-06-27 01:35:00,
2013-06-26 21:41:00,74.3,68.1,29.87,SSW,206,0.0,1.0,81,0.00,,,0.00,0,Wunderground v.1.15,2013-06-27 01:41:00,
2013-06-26 21:47:00,74.1,68.3,29.88,SSW,206,0.0,1.0,82,0.00,,,0.00,0,Wunderground v.1.15,2013-06-27 01:47:00,
2013-06-26 21:52:00,73.9,68.4,29.89,South,191,0.0,1.0,83,0.00,,,0.00,0,Wunderground v.1.15,2013-06-27 01:52:00,
2013-06-26 21:58:00,73.6,68.1,29.89,SSE,162,1.0,2.0,83,0.00,,,0.00,0,Wunderground v.1.15,2013-06-27 01:58:00,
2013-06-26 22:04:00,73.3,68.2,29.89,WNW,290,1.0,2.0,84,0.00,,,0.00,0,Wunderground v.1.15,2013-06-27 02:04:00,
2013-06-26 22:09:00,72.9,67.8,29.89,WNW,290,0.0,2.0,84,0.00,,,0.00,0,Wunderground v.1.15,2013-06-27 02:09:00,
2013-06-26 22:15:00,72.6,67.8,29.89,WNW,290,0.0,2.0,85,0.00,,,0.00,0,Wunderground v.1.15,2013-06-27 02:15:00,
2013-06-26 22:21:00,72.4,68.0,29.89,WNW,290,1.0,2.0,86,0.00,,,0.00,0,Wunderground v.1.15,2013-06-27 02:21:00,
2013-06-26 22:26:00,72.3,68.2,29.89,WNW,290,0.0,2.0,87,0.00,,,0.00,0,Wunderground v.1.15,2013-06-27 02:26:00,
2013-06-26 22:32:00,72.1,68.0,29.89,WNW,290,1.0,2.0,87,0.00,,,0.00,0,Wunderground v.1.15,2013-06-27 02:32:00,
2013-06-26 22:38:00,72.0,67.9,29.88,WNW,290,0.0,2.0,87,0.00,,,0.00,0,Wunderground v.1.15,2013-06-27 02:38:00,
2013-06-26 22:43:00,71.9,67.8,29.88,WNW,290,0.0,2.0,87,0.00,,,0.00,0,Wunderground v.1.15,2013-06-27 02:43:00,
2013-06-26 22:49:00,71.9,67.8,29.88,WNW,290,0.0,2.0,87,0.00,,,0.00,0,Wunderground v.1.15,2013-06-27 02:49:00,
2013-06-26 22:55:00,71.9,67.8,29.88,WNW,290,0.0,2.0,87,0.00,,,0.00,0,Wunderground v.1.15,2013-06-27 02:55:00,
2013-06-26 23:00:00,71.9,67.8,29.88,WNW,290,0.0,0.0,87,0.00,,,0.00,0,Wunderground v.1.15,2013-06-27 03:00:00,
2013-06-26 23:06:00,71.8,67.7,29.88,WNW,290,0.0,1.0,87,0.00,,,0.00,0,Wunderground v.1.15,2013-06-27 03:06:00,
2013-06-26 23:12:00,71.7,68.0,29.88,WNW,290,0.0,0.0,88,0.00,,,0.00,0,Wunderground v.1.15,2013-06-27 03:12:00,
2013-06-26 23:17:00,71.7,68.0,29.88,WNW,290,0.0,1.0,88,0.00,,,0.00,0,Wunderground v.1.15,2013-06-27 03:17:00,
2013-06-26 23:23:00,71.5,67.8,29.88,West,261,1.0,1.0,88,0.00,,,0.00,0,Wunderground v.1.15,2013-06-27 03:23:00,
2013-06-26 23:29:00,71.4,67.7,29.88,West,261,0.0,1.0,88,0.00,,,0.00,0,Wunderground v.1.15,2013-06-27 03:29:00,
2013-06-26 23:35:00,71.2,67.8,29.88,South,186,1.0,4.0,89,0.00,,,0.00,0,Wunderground v.1.15,2013-06-27 03:35:00,
2013-06-26 23:40:00,70.9,67.8,29.87,SSW,202,2.0,2.0,90,0.00,,,0.00,0,Wunderground v.1.15,2013-06-27 03:40:00,
2013-06-26 23:46:00,70.7,67.6,29.87,SSW,202,1.0,2.0,90,0.00,,,0.00,0,Wunderground v.1.15,2013-06-27 03:46:00,
2013-06-26 23:51:00,70.6,67.8,29.87,SSW,202,1.0,2.0,91,0.00,,,0.00,0,Wunderground v.1.15,2013-06-27 03:51:00,
2013-06-26 23:57:00,70.5,67.7,29.86,SSW,202,1.0,2.0,91,0.00,,,0.00,0,Wunderground v.1.15,2013-06-27 03:57:00,